Showing default

NUSAT-50 (NANCY ROMAN), 60493

Orbit data source: Space-Track

NUSAT-50 (NANCY ROMAN), 60493 is a payload satellite owned by URUGUS S.A. (AR) in SSO that was launched on Fri, 16 Aug 2024 UTC via an FALCON 9 launch vehicle from the Air Force Western Test Range (AFWTR). Payload-class satellites include a variety of spacecraft equipped with specific instruments for various scientific and technological missions. These include communications satellites like Starlink; space stations such as the ISS; scientific satellites like the Hubble; Earth observation satellites from companies like Planet Labs, Umbra, and HawkEye 360; GPS; miniature CubeSats for education and research; and military/defense satellites.

Loading next visibility...
Identifier
60493, 2024-149AB
Orbit
SSO
Country
Flag of ARAR / ARGN
Related business
Manufacturer
URUGUS S.A.
Mission
Operational Commercial Imaging
Bus & Motor
NEWSAT V, Unknown motor
Mass
41.5 kg wet, 38.5 kg dry
Launch date (UTC)
2024-08-16 (2 years ago)
Launch vehicle
FALCON 9
Launch site
Air Force Western Test Range (AFWTR)
Object type
Payload
Rocket body
Debris
Shape & HBR
Box, 1.0 m
Radar Cross Section
0.542 m², Medium (>0.1 m² and < 1m²)

Expand to show TLE details & history
Last TLE update: 6 hours ago

TLE from 6 hours ago
0 NUSAT-50 (NANCY ROMAN)
1 60493U 24149AB  26144.94533347  .00008130  00000-0  28789-3 0  9996
2 60493  97.3788 226.3711 0001718 280.4261  79.6786 15.29387743 98579
Epoch: 2026-05-24T22:41Z
TLE epoch observation values (Epoch: 2026-05-24T22:41:16.811Z)
Latitude
-0.00001°
Longitude
3.51086°
Altitude
480.534 km
Speed
7.625 km/s
True Right ascension
15h 05m 29s
True Declination
0° 00' 00"
Sunlit
Object was in full shadow at epoch
Visualization orbit readout
Latitude
Unknown
Longitude
Unknown
Altitude
Unknown
Speed
Unknown
Apparent Right ascension
Unknown
Apparent Declination
Unknown
Sunlit
N/A
Visualization observer readout
Local Sidereal Time
14:03:12
Azimuth
Unknown
Elevation
Unknown
Doppler factor
Unknown
Orbital elements
Apogee altitude
475.771 km
Perigee altitude
473.416 km
Semi-major axis
6,852.731 km
Eccentricity
0.00017
Inclination
97.3788°
RAAN
226.3711°
Arg. of periapsis
280.4261°
True anomaly
79.69797°
Mean anomaly
79.6786°
Eccentric anomaly
79.68828°
Mean motion
3.82602 °/min
Orbital period
94.09 mins
BSTAR
0.00028789
Loading maneuver chart data...
Computing Atmospheric mass density...
Loading historical data...
Loading historical data...
Loading historical data...
Loading historical data...
Loading historical data...
Loading historical data...
Loading historical data...

Documentation

Showing up to 5 results
|